When you browse on this site, cookies collect data to enhance your experience and personalize the content and advertising you see.
Visit our Privacy Policy to learn more. By continuing to use the site, you agree to this use of cookies and data.
  • En Estados Unidos
  • Lista de países
  • Para 7 días
  • Temperatura del agua
  • Mapa Satelital
  • El tiempo en el mapa
  • Informadores
  • user-avatar
    Iniciar sesión

    Tiempo cada hora Kipungo

    Hoy, 21 Enero, Lunes

    Tiempo Temperatura Precipitaciones Viento Presión Humedad
    00:00 +20°C° 0 mm 1 mps 654 mmHg 87%
    01:00 +20°C° 0 mm 1 mps 654 mmHg 88%
    02:00 +20°C° 0 mm 1 mps 654 mmHg 89%
    03:00 +20°C° 0 mm 1 mps 654 mmHg 89%
    04:00 +19°C° 0 mm 1 mps 654 mmHg 89%
    05:00 +20°C° 0 mm 1 mps 654 mmHg 88%
    06:00 +20°C° 0 mm 1 mps 654 mmHg 86%
    07:00 +19°C° 0 mm 0 mps 655 mmHg 83%
    08:00 +23°C° 0.4 mm 1 mps 655 mmHg 78%
    09:00 +24°C° 0.4 mm 1 mps 655 mmHg 73%
    10:00 +26°C° 0.4 mm 2 mps 656 mmHg 69%
    11:00 +27°C° 0.9 mm 2 mps 656 mmHg 64%
    12:00 +28°C° 0.9 mm 2 mps 655 mmHg 60%
    13:00 +30°C° 0.9 mm 2 mps 655 mmHg 56%
    14:00 +29°C° 1.5 mm 2 mps 655 mmHg 59%
    15:00 +28°C° 1.5 mm 2 mps 654 mmHg 63%
    16:00 +27°C° 1.5 mm 2 mps 653 mmHg 67%
    17:00 +26°C° 1.9 mm 2 mps 653 mmHg 74%
    18:00 +24°C° 1.9 mm 2 mps 653 mmHg 80%
    19:00 +23°C° 1.9 mm 2 mps 653 mmHg 87%
    20:00 +21°C° 0.8 mm 2 mps 653 mmHg 88%
    21:00 +21°C° 0.8 mm 2 mps 654 mmHg 89%
    22:00 +21°C° 0.8 mm 1 mps 654 mmHg 90%
    23:00 +21°C° 0.5 mm 1 mps 654 mmHg 91%

    Mañana, 22 Enero, Martes

    Tiempo Temperatura Precipitaciones Viento Presión Humedad
    00:00 +21°C° 0.5 mm 1 mps 654 mmHg 92%
    01:00 +20°C° 0.5 mm 1 mps 653 mmHg 94%
    02:00 +20°C° 0.1 mm 1 mps 653 mmHg 94%
    03:00 +20°C° 0.1 mm 1 mps 653 mmHg 95%
    04:00 +20°C° 0.1 mm 1 mps 653 mmHg 95%
    05:00 +20°C° 0 mm 1 mps 653 mmHg 94%
    06:00 +21°C° 0 mm 1 mps 653 mmHg 93%
    07:00 +19°C° 0 mm 0 mps 654 mmHg 91%
    08:00 +23°C° 0.1 mm 1 mps 654 mmHg 83%
    09:00 +25°C° 0.1 mm 1 mps 655 mmHg 76%
    10:00 +27°C° 0.1 mm 1 mps 655 mmHg 68%
    11:00 +28°C° 0.1 mm 1 mps 655 mmHg 60%
    12:00 +30°C° 0.1 mm 1 mps 655 mmHg 52%
    13:00 +31°C° 0.1 mm 1 mps 655 mmHg 44%
    14:00 +31°C° 0.2 mm 1 mps 655 mmHg 47%
    15:00 +30°C° 0.2 mm 1 mps 654 mmHg 50%
    16:00 +27°C° 0.2 mm 0 mps 653 mmHg 53%
    17:00 +28°C° 0.3 mm 1 mps 653 mmHg 59%
    18:00 +26°C° 0.3 mm 1 mps 653 mmHg 66%
    19:00 +24°C° 0.3 mm 2 mps 653 mmHg 72%
    20:00 +23°C° 0.8 mm 2 mps 653 mmHg 79%
    21:00 +21°C° 0.8 mm 2 mps 654 mmHg 85%
    22:00 +20°C° 0.8 mm 2 mps 654 mmHg 92%
    23:00 +20°C° 0.5 mm 2 mps 654 mmHg 93%

    Pasado mañana, 23 Enero, Miércoles

    Tiempo Temperatura Precipitaciones Viento Presión Humedad
    00:00 +20°C° 0.5 mm 2 mps 654 mmHg 94%
    01:00 +21°C° 0.5 mm 1 mps 654 mmHg 94%
    02:00 +21°C° 1.4 mm 1 mps 653 mmHg 93%
    03:00 +20°C° 1.4 mm 2 mps 653 mmHg 92%
    04:00 +20°C° 1.4 mm 2 mps 653 mmHg 92%
    05:00 +20°C° 0 mm 2 mps 653 mmHg 90%
    06:00 +20°C° 0 mm 2 mps 653 mmHg 89%
    07:00 +20°C° 0 mm 2 mps 654 mmHg 88%
    08:00 +23°C° 0 mm 2 mps 654 mmHg 75%
    09:00 +25°C° 0 mm 2 mps 655 mmHg 63%
    10:00 +28°C° 0 mm 2 mps 656 mmHg 50%
    11:00 +29°C° 0 mm 2 mps 656 mmHg 47%
    12:00 +31°C° 0 mm 2 mps 655 mmHg 44%
    13:00 +32°C° 0 mm 2 mps 655 mmHg 41%
    14:00 +30°C° 0 mm 2 mps 654 mmHg 48%
    15:00 +28°C° 0 mm 2 mps 653 mmHg 55%
    16:00 +27°C° 0 mm 2 mps 652 mmHg 62%
    17:00 +26°C° 0 mm 2 mps 652 mmHg 64%
    18:00 +25°C° 0 mm 1 mps 652 mmHg 66%
    19:00 +24°C° 0 mm 1 mps 652 mmHg 68%
    20:00 +23°C° 0 mm 1 mps 653 mmHg 73%
    21:00 +21°C° 0 mm 2 mps 653 mmHg 78%
    22:00 +20°C° 0 mm 2 mps 653 mmHg 83%
    23:00 +20°C° 0 mm 2 mps 653 mmHg 85%

    24 Enero, Jueves

    Tiempo Temperatura Precipitaciones Viento Presión Humedad
    00:00 +19°C° 0 mm 2 mps 652 mmHg 88%
    01:00 +19°C° 0 mm 2 mps 652 mmHg 90%
    02:00 +19°C° 0 mm 2 mps 652 mmHg 89%
    03:00 +18°C° 0 mm 2 mps 651 mmHg 89%
    04:00 +18°C° 0 mm 2 mps 651 mmHg 88%
    05:00 +19°C° 0 mm 2 mps 652 mmHg 85%
    06:00 +20°C° 0 mm 1 mps 652 mmHg 82%
    07:00 +21°C° 0 mm 1 mps 653 mmHg 78%
    08:00 +25°C° 0 mm 1 mps 654 mmHg 66%
    09:00 +26°C° 0 mm 0 mps 655 mmHg 54%
    10:00 +30°C° 0 mm 0 mps 656 mmHg 42%
    11:00 +31°C° 0 mm 0 mps 655 mmHg 37%
    12:00 +34°C° 0 mm 1 mps 655 mmHg 32%
    13:00 +35°C° 0 mm 1 mps 654 mmHg 28%
    14:00 +35°C° 0 mm 1 mps 653 mmHg 28%
    15:00 +34°C° 0 mm 1 mps 653 mmHg 29%
    16:00 +33°C° 0 mm 1 mps 652 mmHg 29%
    17:00 +31°C° 0 mm 1 mps 652 mmHg 36%
    18:00 +29°C° 0 mm 1 mps 652 mmHg 43%
    19:00 +26°C° 0 mm 2 mps 652 mmHg 50%
    20:00 +26°C° 0 mm 2 mps 652 mmHg 55%
    21:00 +25°C° 0 mm 2 mps 653 mmHg 60%
    22:00 +24°C° 0 mm 3 mps 653 mmHg 65%
    23:00 +24°C° 0 mm 2 mps 653 mmHg 68%

    25 Enero, Viernes

    Tiempo Temperatura Precipitaciones Viento Presión Humedad
    00:00 +23°C° 0 mm 2 mps 653 mmHg 71%
    01:00 +23°C° 0 mm 2 mps 652 mmHg 73%
    02:00 +22°C° 0 mm 1 mps 652 mmHg 75%
    03:00 +21°C° 0 mm 1 mps 652 mmHg 77%
    04:00 +21°C° 0 mm 1 mps 652 mmHg 79%
    05:00 +21°C° 0 mm 1 mps 652 mmHg 78%
    06:00 +22°C° 0 mm 1 mps 653 mmHg 77%
    07:00 +22°C° 0 mm 1 mps 653 mmHg 76%
    08:00 +26°C° 0 mm 1 mps 654 mmHg 64%
    09:00 +29°C° 0 mm 1 mps 655 mmHg 53%
    10:00 +32°C° 0 mm 1 mps 656 mmHg 42%
    11:00 +33°C° 0 mm 1 mps 655 mmHg 37%
    12:00 +34°C° 0 mm 1 mps 655 mmHg 33%
    13:00 +36°C° 0 mm 2 mps 654 mmHg 29%
    14:00 +35°C° 0 mm 2 mps 654 mmHg 31%
    15:00 +34°C° 0 mm 1 mps 653 mmHg 34%
    16:00 +33°C° 0 mm 1 mps 652 mmHg 36%
    17:00 +31°C° 0 mm 1 mps 652 mmHg 41%
    18:00 +29°C° 0 mm 1 mps 652 mmHg 45%
    19:00 +27°C° 0 mm 1 mps 652 mmHg 50%
    20:00 +26°C° 0 mm 2 mps 653 mmHg 55%
    21:00 +25°C° 0 mm 2 mps 653 mmHg 60%
    22:00 +24°C° 0 mm 3 mps 654 mmHg 66%
    23:00 +23°C° 0 mm 2 mps 653 mmHg 70%

    26 Enero, Sábado

    Tiempo Temperatura Precipitaciones Viento Presión Humedad
    00:00 +23°C° 0 mm 2 mps 653 mmHg 74%
    01:00 +21°C° 0 mm 2 mps 653 mmHg 78%
    02:00 +20°C° 0 mm 2 mps 653 mmHg 80%
    03:00 +20°C° 0 mm 2 mps 652 mmHg 81%
    04:00 +19°C° 0 mm 2 mps 652 mmHg 83%
    05:00 +20°C° 0 mm 2 mps 653 mmHg 82%
    06:00 +21°C° 0 mm 1 mps 654 mmHg 80%
    07:00 +22°C° 0 mm 1 mps 654 mmHg 79%
    08:00 +25°C° 0 mm 1 mps 655 mmHg 66%
    09:00 +28°C° 0 mm 1 mps 656 mmHg 54%
    10:00 +32°C° 0 mm 1 mps 657 mmHg 42%
    11:00 +33°C° 0 mm 1 mps 657 mmHg 39%
    12:00 +34°C° 0 mm 1 mps 656 mmHg 35%
    13:00 +36°C° 0 mm 1 mps 656 mmHg 31%
    14:00 +34°C° 0 mm 1 mps 655 mmHg 36%
    15:00 +32°C° 0 mm 1 mps 654 mmHg 41%
    16:00 +30°C° 0 mm 1 mps 653 mmHg 45%
    17:00 +29°C° 0 mm 1 mps 653 mmHg 50%
    18:00 +27°C° 0 mm 2 mps 653 mmHg 55%
    19:00 +26°C° 0 mm 2 mps 653 mmHg 60%
    20:00 +25°C° 0 mm 3 mps 654 mmHg 64%
    21:00 +24°C° 0 mm 3 mps 654 mmHg 68%
    22:00 +22°C° 0 mm 3 mps 654 mmHg 71%
    23:00 +21°C° 0 mm 2 mps 654 mmHg 77%
    Mostrar más